| time (UTC) | temp F | wind direction | speed MPH | gust MPH | rain 1hr in | rain 24hr in | rain mn in | humidity % | barometer mb |
| 20260502210101 | 63 | 270 | 1.0 | 0.0 | 0.00 | 0.00 | 0.00 | 19 | 1005.9 |
| 20260502204604 | 63 | 296 | 1.0 | 0.0 | 0.00 | 0.00 | 0.00 | 18 | 1006.1 |
| 20260502203102 | 63 | 278 | 1.0 | 0.0 | 0.00 | 0.00 | 0.00 | 19 | 1006.4 |
| 20260502201550 | 62 | 223 | 1.0 | 0.0 | 0.00 | 0.00 | 0.00 | 20 | 1006.3 |
| 20260502200050 | 61 | 308 | 2.0 | 0.0 | 0.00 | 0.00 | 0.00 | 19 | 1006.5 |
| 20260502194553 | 62 | 224 | 2.0 | 0.0 | 0.00 | 0.00 | 0.00 | 20 | 1006.7 |
| 20260502193046 | 63 | 251 | 1.0 | 0.0 | 0.00 | 0.00 | 0.00 | 22 | 1006.8 |
| 20260502191543 | 62 | 226 | 0.0 | 0.0 | 0.00 | 0.00 | 0.00 | 21 | 1006.8 |
| 20260502190039 | 61 | 110 | 2.0 | 0.0 | 0.00 | 0.00 | 0.00 | 20 | 1006.8 |
| 20260502184540 | 60 | 119 | 1.0 | 0.0 | 0.00 | 0.00 | 0.00 | 21 | 1007.6 |
| 20260502183036 | 60 | 234 | 1.0 | 0.0 | 0.00 | 0.00 | 0.00 | 20 | 1007.7 |
| 20260502181537 | 59 | 200 | 2.0 | 0.0 | 0.00 | 0.00 | 0.00 | 20 | 1007.8 |
| 20260502163044 | 57 | 198 | 0.0 | 0.0 | 0.00 | 0.00 | 0.00 | 22 | 1007.6 |
| 20260502161521 | 56 | 121 | 0.0 | 0.0 | 0.00 | 0.00 | 0.00 | 22 | 1008.3 |
| 20260502151509 | 50 | 186 | 0.0 | 0.0 | 0.00 | 0.00 | 0.00 | 28 | 1008.5 |
| 20260502130104 | 42 | 186 | 0.0 | 0.0 | 0.00 | 0.00 | 0.00 | 38 | 1006.6 |
| 20260502123058 | 42 | 186 | 0.0 | 0.0 | 0.00 | 0.00 | 0.00 | 34 | 1006.4 |
| 20260502121550 | 42 | 185 | 0.0 | 0.0 | 0.00 | 0.00 | 0.00 | 35 | 1006.4 |
| 20260502114550 | 43 | 185 | 0.0 | 0.0 | 0.00 | 0.00 | 0.00 | 41 | 1006.0 |
| 20260502113050 | 43 | 185 | 0.0 | 0.0 | 0.00 | 0.00 | 0.00 | 38 | 1006.0 |
| 20260502111548 | 42 | 185 | 0.0 | 0.0 | 0.00 | 0.00 | 0.00 | 40 | 1005.9 |
| 20260502110044 | 42 | 185 | 0.0 | 0.0 | 0.00 | 0.00 | 0.00 | 40 | 1005.9 |
| 20260502104543 | 42 | 185 | 0.0 | 0.0 | 0.00 | 0.00 | 0.00 | 41 | 1005.9 |
| 20260502103044 | 43 | 185 | 0.0 | 0.0 | 0.00 | 0.00 | 0.00 | 38 | 1005.8 |
| 20260502101543 | 43 | 185 | 0.0 | 0.0 | 0.00 | 0.00 | 0.00 | 39 | 1005.9 |
| 20260502071530 | 44 | 185 | 0.0 | 0.0 | 0.00 | 0.00 | 0.00 | 38 | 1006.9 |
| 20260502070039 | 44 | 185 | 0.0 | 0.0 | 0.00 | 0.00 | 0.00 | 39 | 1007.2 |
| 20260502064538 | 44 | 185 | 0.0 | 0.0 | 0.00 | 0.00 | 0.00 | 41 | 1007.2 |
| 20260502063029 | 44 | 185 | 0.0 | 0.0 | 0.00 | 0.00 | 0.00 | 45 | 1006.6 |
| 20260502061526 | 44 | 185 | 0.0 | 0.0 | 0.00 | 0.00 | 0.00 | 45 | 1006.6 |
| 20260502060029 | 44 | 185 | 0.0 | 0.0 | 0.00 | 0.00 | 0.00 | 43 | 1007.7 |
| 20260502054526 | 45 | 185 | 0.0 | 0.0 | 0.00 | 0.00 | 0.00 | 43 | 1007.6 |
| 20260502053025 | 45 | 185 | 0.0 | 0.0 | 0.00 | 0.00 | 0.00 | 42 | 1007.2 |
| 20260502051528 | 46 | 185 | 0.0 | 0.0 | 0.00 | 0.00 | 0.00 | 43 | 1007.1 |
| 20260502050031 | 46 | 185 | 0.0 | 0.0 | 0.00 | 0.00 | 0.00 | 42 | 1007.6 |
| 20260502044523 | 47 | 185 | 0.0 | 0.0 | 0.00 | 0.00 | 0.00 | 41 | 1006.9 |
| 20260502043023 | 48 | 185 | 0.0 | 0.0 | 0.00 | 0.00 | 0.00 | 37 | 1007.0 |
| 20260502041523 | 48 | 182 | 0.0 | 0.0 | 0.00 | 0.00 | 0.00 | 33 | 1006.8 |
| 20260502040022 | 49 | 182 | 0.0 | 0.0 | 0.00 | 0.00 | 0.00 | 34 | 1007.2 |
| 20260502034534 | 50 | 182 | 0.0 | 0.0 | 0.00 | 0.00 | 0.00 | 30 | 1006.9 |
| 20260502033021 | 51 | 182 | 0.0 | 0.0 | 0.00 | 0.00 | 0.00 | 32 | 1006.7 |
| 20260502031521 | 52 | 182 | 0.0 | 0.0 | 0.00 | 0.00 | 0.00 | 29 | 1006.1 |
| 20260502030021 | 53 | 182 | 0.0 | 0.0 | 0.00 | 0.00 | 0.00 | 29 | 1006.9 |
| 20260502024520 | 54 | 182 | 0.0 | 0.0 | 0.00 | 0.00 | 0.00 | 27 | 1006.6 |
| 20260502023020 | 55 | 182 | 0.0 | 0.0 | 0.00 | 0.00 | 0.00 | 27 | 1006.7 |
| 20260502021519 | 56 | 182 | 0.0 | 0.0 | 0.00 | 0.00 | 0.00 | 27 | 1006.1 |
| 20260502020019 | 56 | 182 | 0.0 | 0.0 | 0.00 | 0.00 | 0.00 | 26 | 1008.0 |
| 20260502014539 | 56 | 181 | 0.0 | 0.0 | 0.00 | 0.00 | 0.00 | 24 | 1008.0 |
| 20260502013019 | 57 | 254 | 0.0 | 0.0 | 0.00 | 0.00 | 0.00 | 27 | 1007.3 |
| 20260502011518 | 60 | 181 | 0.0 | 0.0 | 0.00 | 0.00 | 0.00 | 29 | 1006.8 |
| 20260502010017 | 62 | 260 | 1.0 | 0.0 | 0.00 | 0.00 | 0.00 | 28 | 1006.1 |
| 20260502004517 | 63 | 209 | 1.0 | 0.0 | 0.00 | 0.00 | 0.00 | 25 | 1006.3 |
| 20260502003016 | 63 | 209 | 1.0 | 0.0 | 0.00 | 0.00 | 0.00 | 25 | 1006.2 |
| 20260502001519 | 62 | 127 | 1.0 | 0.0 | 0.00 | 0.00 | 0.00 | 25 | 1006.3 |
| 20260502000035 | 63 | 130 | 1.0 | 0.0 | 0.00 | 0.00 | 0.00 | 25 | 1006.3 |
| 20260501234514 | 62 | 202 | 1.0 | 0.0 | 0.00 | 0.00 | 0.00 | 28 | 1006.2 |
| 20260501233012 | 63 | 237 | 0.0 | 0.0 | 0.00 | 0.00 | 0.00 | 27 | 1005.8 |
| 20260501231518 | 63 | 322 | 1.0 | 0.0 | 0.00 | 0.00 | 0.00 | 27 | 1005.7 |
| 20260501230010 | 64 | 136 | 1.0 | 0.0 | 0.00 | 0.00 | 0.00 | 27 | 1005.7 |
| 20260501224509 | 63 | 236 | 1.0 | 0.0 | 0.00 | 0.00 | 0.00 | 28 | 1006.1 |
| 20260501223009 | 63 | 189 | 1.0 | 0.0 | 0.00 | 0.00 | 0.00 | 32 | 1006.0 |
| 20260501221517 | 65 | 220 | 0.0 | 0.0 | 0.00 | 0.00 | 0.00 | 26 | 1005.9 |
| 20260501220012 | 66 | 76 | 0.0 | 0.0 | 0.00 | 0.00 | 0.00 | 17 | 1006.2 |
| 20260501214504 | 64 | 32 | 1.0 | 0.0 | 0.00 | 0.00 | 0.00 | 19 | 1006.2 |
| 20260501213002 | 64 | 302 | 1.0 | 0.0 | 0.00 | 0.00 | 0.00 | 18 | 1006.8 |
| 20260501211502 | 64 | 342 | 0.0 | 0.0 | 0.00 | 0.00 | 0.00 | 19 | 1007.0 |